EZY4EF EGKK-EGJB

Flight info

Callsign EZY4EF
Flight time N/A
Altitude 18000
Route IMVUR N63 LELNA
Aircraft A320/M-SDE3FGHIRWY/LB1

Departure

Time 2026-05-04 21:02
Airport London Gatwick Airport (EGKK)

Arrival

Time N/A
Airport Guernsey Airport (EGJB)
Time Latitude Longitude Altitude Speed Heading
2026-05-04 21:01 51.16806 -0.05684 3535 ft 234 kts 57°
2026-05-04 21:02 51.18077 -0.03844 3774 ft 263 kts 27°
2026-05-04 21:02 51.19922 -0.03219 3879 ft 289 kts 358°
2026-05-04 21:02 51.21914 -0.04099 3919 ft 316 kts 333°
2026-05-04 21:02 51.23549 -0.06301 3949 ft 304 kts 308°
2026-05-04 21:03 51.24400 -0.09259 3873 ft 288 kts 281°
2026-05-04 21:03 51.24322 -0.12376 3867 ft 281 kts 253°
2026-05-04 21:03 51.23586 -0.15206 4345 ft 272 kts 245°
2026-05-04 21:03 51.22783 -0.17941 5052 ft 273 kts 246°
2026-05-04 21:04 51.22048 -0.20716 6060 ft 272 kts 249°
2026-05-04 21:04 51.21415 -0.23582 6991 ft 275 kts 252°
2026-05-04 21:04 51.20889 -0.26530 7891 ft 278 kts 255°
2026-05-04 21:04 51.20446 -0.29555 8773 ft 282 kts 257°
2026-05-04 21:05 51.20045 -0.32632 9656 ft 285 kts 258°
2026-05-04 21:05 51.19657 -0.35749 10432 ft 289 kts 258°
2026-05-04 21:05 51.19261 -0.38952 10971 ft 302 kts 258°
2026-05-04 21:05 51.18841 -0.42328 11437 ft 317 kts 258°
2026-05-04 21:06 51.18411 -0.45764 11673 ft 311 kts 258°
2026-05-04 21:06 51.17878 -0.49229 12024 ft 329 kts 253°
2026-05-04 21:06 51.17177 -0.52772 12554 ft 339 kts 250°
2026-05-04 21:06 51.16391 -0.56296 13271 ft 343 kts 249°
2026-05-04 21:07 51.15539 -0.59867 13969 ft 348 kts 248°
2026-05-04 21:07 51.14647 -0.63479 14611 ft 351 kts 248°
2026-05-04 21:07 51.13727 -0.67103 15255 ft 355 kts 247°
2026-05-04 21:07 51.12784 -0.70742 15915 ft 357 kts 246°
2026-05-04 21:08 51.11817 -0.74407 16587 ft 360 kts 246°
2026-05-04 21:08 51.10837 -0.78085 17201 ft 363 kts 246°
2026-05-04 21:08 51.09842 -0.81799 17827 ft 366 kts 246°
2026-05-04 21:08 51.08834 -0.85537 18451 ft 368 kts 246°
2026-05-04 21:09 51.07823 -0.89284 19008 ft 370 kts 245°
2026-05-04 21:09 51.06803 -0.93063 19492 ft 375 kts 245°
2026-05-04 21:09 51.05757 -0.96924 19791 ft 385 kts 245°
2026-05-04 21:09 51.04680 -1.00888 19907 ft 399 kts 245°
2026-05-04 21:10 51.03579 -1.04939 19958 ft 390 kts 245°
2026-05-04 21:10 51.02534 -1.08792 19981 ft 373 kts 245°
2026-05-04 21:10 51.01506 -1.12577 19990 ft 374 kts 245°
2026-05-04 21:10 51.00467 -1.16391 19993 ft 377 kts 245°
2026-05-04 21:11 50.99423 -1.20215 20004 ft 377 kts 245°
2026-05-04 21:11 50.98383 -1.24028 19998 ft 376 kts 245°
2026-05-04 21:11 50.97343 -1.27833 20001 ft 376 kts 245°